Regional Weather Roundup
Issued by NWS Kansas City/Pleasant Hill, MO

Home | Current Version | Previous Version | Text Only | Print | Product List | Glossary On
Versions: 1 2 3 4 5 6 7 8 9 10 11 12 13 14 15 16 17 18 19 20 21 22 23 24 25 26 27 28 29 30 31 32 33 34 35 36 37 38 39 40 41 42 43 44 45 46 47 48 49 50
000
ASUS43 KEAX 261510
RWREAX

WEATHER ROUNDUP FOR EASTERN KANSAS AND NORTHWEST MISSOURI
NATIONAL WEATHER SERVICE KANSAS CITY/PLEASANT HILL MO
900 AM CST MON JAN 26 2015

KSZ040-057-103>105-MOZ028-029-037-043-261600-
...KANSAS CITY METROPOLITAN AREA...

CITY           SKY/WX    TMP DP  RH WIND       PRES   REMARKS
K.C. INTL      MOSUNNY   33  30  88 SW13      29.96F WCI  24
K.C. DOWNTOWN  SUNNY     36  30  79 SW8       29.98F WCI  30
LEES SUMMIT    SUNNY     33  29  85 SW10      29.99F WCI  25
OLATHE - IXD   SUNNY     33  30  88 S14       29.99F WCI  23
OLATHE - OJC   SUNNY     34  30  85 SW8       29.98F WCI  27
LAWRENCE       SUNNY     34  29  82 SW7       29.99F WCI  28

$$

MOZ001>008-011>017-020>025-030>033-038>040-044>046-053-054-261600-
...NORTHERN AND CENTRAL MISSOURI...

CITY           SKY/WX    TMP DP  RH WIND       PRES   REMARKS
ST. JOSEPH     SUNNY     30  29  96 S7        29.95F WCI  23
MOSBY          SUNNY     32  30  93 S3        29.99F
WARRENSBURG    SUNNY     32  30  93 S6        30.01F WCI  26
WHITEMAN AFB   SUNNY     33  30  86 SW10      30.00F WCI  25
CLINTON        SUNNY     34  32  93 S6        30.05F WCI  29
SEDALIA        SUNNY     32  29  88 SW8       30.03F WCI  25
WARSAW         NOT AVBL
MARSHALL       SUNNY     30  30 100 S5        30.03F FOG     WCI  25
CHILLICOTHE      N/A     31  28  89 S7        29.96F WCI  24
KIRKSVILLE     MOSUNNY   32  30  92 SW8       29.96F WCI  25

$$

MOZ041-047>049-056>058-063>065-088>090-097-261600-
...EASTERN AND SOUTHERN MISSOURI...

CITY           SKY/WX    TMP DP  RH WIND       PRES   REMARKS
ST. LOUIS INTL CLOUDY    30  23  75 W8        30.07R WCI  22
SPIRIT OF STL  CLOUDY    29  24  82 W6        30.07R WCI  23
COLUMBIA       PTSUNNY   32  29  88 SW7       30.03F WCI  26
JEFFERSON CITY CLOUDY    33  28  81 W3        30.06F
MEXICO         CLOUDY    32  32 100 SW9       30.02F WCI  24
HANNIBAL       CLOUDY    30  27  86 S9        30.00F WCI  22
ROLLA          CLOUDY    30  27  88 SW8       30.03F WCI  22
LEBANON        SUNNY     36  30  80 W12       30.06R WCI  27
OSAGE BEACH    SUNNY     34  28  80 SW7       30.06R WCI  28
SPRINGFIELD    SUNNY     33  29  85 SW9       30.06F WCI  25
BRANSON        SUNNY     37  30  75 W12       30.10R WCI  30
NEVADA         SUNNY     34  30  86 SW6       30.06F WCI  29
JOPLIN         SUNNY     35  31  85 S8        30.09F WCI  29
WEST PLAINS    CLOUDY    33  26  75 W7        30.07F WCI  27

$$

IAZ060-094-KSZ022-034>040-054-083-096-NEZ052-066-093-261600-
...KANSAS...SOUTHEAST NEBRASKA AND IOWA...

CITY           SKY/WX    TMP DP  RH WIND       PRES   REMARKS
TOPEKA         SUNNY     35  29  78 SW9       29.98F WCI  28
MANHATTAN      SUNNY     37  30  75 SW8       30.00R WCI  31
EMPORIA        SUNNY     37  32  82 SW7       30.01R WCI  32
CHANUTE        SUNNY     34  31  88 S9        30.05F WCI  27
WICHITA        MOSUNNY   38  30  73 SW7       30.04F WCI  33
OMAHA          MOSUNNY   32  29  88 S3        29.88S
LINCOLN        SUNNY     36  29  75 W5        29.93R WCI  32
FALLS CITY     SUNNY     35  29  78 SW10      29.91F WCI  27
LAMONI         PTSUNNY   31  28  89 SW13      29.87F WCI  21
DES MOINES     CLOUDY    34  28  79 SW13      29.82F WCI  25

$$




USA.gov is the U.S. government's official web portal to all federal, state and local government web resources and services.